Tracking 20712 objects as of 28-May-2020
HD Live streaming from Space Station
objects crossing your sky now

COSMOS 374 DEB

Track COSMOS 374 DEB now!
10-day predictions


NORAD ID: 18517
Int'l Code: 1970-089DD
Perigee: 515.8 km
Apogee: 1,233.9 km
Inclination: 62.4 °
Period: 102.3 minutes
Semi major axis: 7245 km
RCS: 0.0081 m2 (small)
Launch date: October 23, 1970
Source: Commonwealth of Independent States (former USSR) (CIS)
Launch site: TYURATAM MISSILE AND SPACE COMPLEX (TTMTR)

Note: This is SATELLITE DEBRIS
aabbcc
Your satellite tracking list
Your tracking list is empty




NASA's NSSDC Master Catalog

Two Line Element Set (TLE):
1 18517U 70089DD  20149.48900833 +.00000184 +00000-0 +66607-4 0  9999
2 18517 062.4146 329.3406 0495535 038.8898 324.6725 14.07561431559379
Source of the keplerian elements: AFSPC